Regional Weather Roundup
Issued by NWS

Home | Current Version | Previous Version | Text Only | Print | Product List | Glossary On
Versions: 1 2 3 4 5 6 7 8 9 10 11 12 13 14 15 16 17 18 19 20 21 22 23 24 25 26 27 28 29 30 31 32 33 34 35 36 37 38 39 40 41 42 43 44 45 46 47 48 49 50
000
ASUS43 KMKX 260400
RWRWI

WISCONSIN REGIONAL WEATHER ROUNDUP
NATIONAL WEATHER SERVICE MILWAUKEE/SULLIVAN WI
1100 PM CDT SUN JUN 25 2017

NOTE: "FAIR" INDICATES FEW OR NO CLOUDS BELOW 12,000 FEET WITH NO
SIGNIFICANT WEATHER AND/OR OBSTRUCTIONS TO VISIBILITY.

WIZ001-002-006>008-014>016-023>028-260500-
NORTHWEST WISCONSIN

CITY           SKY/WX    TMP DP  RH WIND       PRES   REMARKS
SUPERIOR ARPT  NOT AVBL
ASHLAND        MOCLDY    50  45  83 NW7       30.08S
HAYWARD        MOCLDY    46  44  93 CALM      30.10S
SIREN          PTCLDY    45  43  91 CALM      30.13S
CUMBERLAND     CLEAR     46  45  93 NW5       30.12S
RICE LAKE      CLEAR     51  48  90 NW3       30.13S
CHETEK         PTCLDY    50  47  90 CALM      30.11S
LADYSMITH      CLEAR     51  48  89 W8        30.11S
EAU CLAIRE     NOT AVBL
MENOMONIE      CLEAR     55  47  75 CALM      30.11F
NEW RICHMOND   CLEAR     51  44  77 NW3       30.13S
OSCEOLA        PTCLDY    55  44  68 CALM      30.16R
$$

WIZ003>005-009-010-017-018-260500-
NORTH CENTRAL WISCONSIN

CITY           SKY/WX    TMP DP  RH WIND       PRES   REMARKS
MANITOWISH WTR CLOUDY    46  46 100 W3        30.04F
ARBOR VITAE    MOCLDY    49  47  93 NW3       30.04F
WOODRUFF       MOCLDY    49  47  93 NW3       30.04F
RHINELANDER    CLEAR     46  46 100 W5        30.06S
EAGLE RIVER    MOCLDY    47  47 100 CALM      30.03F
LAND O LAKES   CLOUDY    49  47  94 W7        30.04F
PHILLIPS       CLEAR     46  46  99 CALM      30.06F
TOMAHAWK       NOT AVBL
MEDFORD        CLOUDY    50  48  93 W5        30.08S
MERRILL        MOCLDY    50  48  95 W5        30.07S
$$

WIZ029-030-035-036-043>047-260500-
CENTRAL WISCONSIN

CITY           SKY/WX    TMP DP  RH WIND       PRES   REMARKS
WAUSAU         CLEAR     51  48  89 W9        30.05F
MOSINEE        CLEAR     50  48  93 W8        30.08S
MARSHFIELD     CLEAR     50  46  86 W6        30.08F
STEVENS POINT  CLEAR     51  49  92 W6        30.09R
WAUPACA        PTCLDY    55  53  94 W5        30.07S
WAUTOMA        CLEAR     53  50  89 W8        30.09S
WISC RAPIDS    MOCLDY    52  48  86 W5        30.09F
CAMP DOUGLAS   NOT AVBL
$$

WIZ011>013-019>022-031-037>040-048>050-260500-
NORTHEAST WISCONSIN

CITY           SKY/WX    TMP DP  RH WIND       PRES   REMARKS
ANTIGO         CLEAR     48  46  92 NW8       30.06S
SHAWANO        CLEAR     54  49  81 W5        30.04S
OCONTO         MOCLDY    54  51  89 W9        30.01S
STURGEON BAY     N/A     57  53  86 W12         N/A
GREEN BAY      PTCLDY    56  50  80 W10       30.04S
MANITOWOC      NOT AVBL
APPLETON       PTCLDY    54  52  94 W7        30.04S
CLINTONVILLE   CLEAR     52  46  82 W5        30.05S
OSHKOSH        CLEAR     55  51  86 W5        30.06S
$$

WIZ032>034-041-042-053>061-260500-
SOUTHWEST WISCONSIN

CITY           SKY/WX    TMP DP  RH WIND       PRES   REMARKS
LA CROSSE      CLEAR     63  47  55 NW8       30.10S
SPARTA         PTCLDY    53  49  86 CALM      30.12S
VIROQUA        CLEAR     55  47  76 W6        30.12S
BOSCOBEL       CLEAR     52  50  93 SW5       30.12S
PRAIRIE DU CHI CLEAR     55  48  77 CALM      30.13S
PLATTEVILLE    CLEAR     55  49  82 SW5       30.14S
$$

WIZ056-057-062-063-064-067-068-260500-
SOUTH CENTRAL WISCONSIN

CITY           SKY/WX    TMP DP  RH WIND       PRES   REMARKS
REEDSBURG      CLEAR     52  52 100 CALM      30.11R
BARABOO/DELLS  CLOUDY    54  52  94 CALM      30.11R
LONE ROCK      NOT AVBL
MINERAL POINT  CLEAR     55  50  82 CALM      30.12F
MADISON        MOCLDY    54  51  90 W3        30.10S
MIDDLETON      PTCLDY    53  53 100 CALM      30.11S
WATERTOWN      NOT AVBL
MONROE         CLEAR     55  48  76 W9        30.12S
JANESVILLE     CLEAR     57  50  77 CALM      30.11S
$$

WIZ051-052-058>065-066-070>072-260500-
SOUTHEAST WISCONSIN

CITY           SKY/WX    TMP DP  RH WIND       PRES   REMARKS
MILWAUKEE      MOCLDY    59  54  83 W8        30.08F
WAUKESHA       PTCLDY    54  52  94 W8        30.10
MILWAUKEE/TIMM CLOUDY    55  50  82 W8        30.08F
RACINE         CLOUDY    57  53  86 W7        30.10S
KENOSHA        MOCLDY    58  51  78 W10       30.10S
FOND DU LAC    CLEAR     56  51  84 W6        30.07S
SHEBOYGAN      CLOUDY    57  55  93 W10       30.05S
WEST BEND      PTCLDY    54  52  94 W7        30.07F
JUNEAU         CLEAR     54  51  92 W5        30.10S
$$

LSZ147-162-260500-
LAKE SUPERIOR

STATION/POSITION TIME  TEMP    WIND        PRES    WAVE
                       AIR SEA DIR/SP/G            HT/PER
                 (UTC) (F)     (DEG/KT/KT) (MB)    (FT/S)
W MID LAKE BUOY  0250   43 39  320/ 10/ 12 1017.3S   0
DEVILS ISLAND    0300   49     330/ 14/ 16 1018.6R
SAXON HARBOR     0330   54     320/ 16/ 20 1017.6R
$$

LMZ867-665-643>646-260500-
LAKE MICHIGAN

STATION/POSITION TIME  TEMP    WIND        PRES    WAVE
                       AIR SEA DIR/SP/G            HT/PER
                 (UTC) (F)     (DEG/KT/KT) (MB)    (FT/S)
CHAMBERS ISLAND  0340   57     290/  8/ 11 1015.2S
S GREEN BAY BUOY 0330   59     270/ 17/ 21 1015.9R
N MID LAKE BUOY  0250   58 57  320/ 12/ 14 1015.4F   2/ 5
NORTHPORT PIER   0340   59     320/  7/ 11 1015.2S
KEWAUNEE LAKESHO 0330   57     280/  6/  9 1015.9S
SHEBOYGAN LAKESH 0300   58     270/  8/ 10 1017.2R
PORT WASHINGTON  0340   59     270/  7/ 12 1018.6S
ATWATER BUOY     0209   59 57  260/ 14/ 16 1018.1R
MILWAUKEE LAKESH 0330   59     290/  9/ 12   N/A
S MID LAKE BUOY  0250   63 62  310/ 17/ 25 1017.8R   2/ 4
KENOSHA   LAKESH 0300   61     280/  7/ 11 1018.6
$$

TC  - TEMPERATURE IN CELSIUS
VSB - VISIBILITY IN STATUTE MILES
WCI - WIND CHILL INDEX
HX  - HEAT INDEX





USA.gov is the U.S. government's official web portal to all federal, state and local government web resources and services.